EHI
0 0 0 0 0 0 0 0 0 0 0 0 0 0 0 0 0 0 0 0 0 0 0 0 0 0 0 0 0 0 0 0 0 0 0 0 0 0 0 0 0 0 0
0 0 0 0 0 0 0 0 0 0 0 0 0 0 0 0 0 0 0 0 0 0 0 0 0 0 0 0 0 0 0 0 0 0 0 0 0 0 0 0 0 0 0
0 0 0 0 0 0 0 0 0 0 0 0 0 0 0 0 0 0 0 0 0 0 0 0 0 0 0 0 0 0 0 0 0 0 0 0 0 0 0 0 0 0 0
0 0 0 0 0 0 0 0 0 0 0 0 0 0 0 0 0 0 0 0 0 0 0 0 0 0 0 0 0 0 0 0 0 0 0 0 0 0 0 0 0 0 0
0 0 0 0 0 0 0 0 0 0 0 0 0 0 0 0 0 0 0 0 0 0 0 0 0 0 0 0 0 0 0 0 0 0 0 0 0 0 0 0 0 0 0
0 0 0 0 0 0 0 0 0 0 0 0 0 0 0 0 0 0 0 0 0 0 0 0 0 0 0 0 0 0 0 0 0 0 0 0 0 0 0 0 0 0 0
0 0 0 0 0 0 0 0 0 0 0 0 0 0 0 0 0 0 0 0 0 0 0 0 0 0 0 0 0 0 0 0 0 0 0 0 0 0 0 0 0 0 0
0 0 0 0 0 0 0 0 0 0 0 0 0 0 0 0 0 0 0 0 0 0 0 0 0 0 0 0 0 0 0 0 0 0 0 0 0 0 0 0 0 0 0
0 0 0 0 0 0 0 0 0 0 0 0 0 0 0 0 0 0 0 0 0 0 0 0 0 0 0 0 0 0 0 0 0 0 0 0 0 0 0 0 0 0 0
0 0 0 0 0 0 0 0 0 0 0 0 0 0 0 0 0 0 0 0 0 0 0 0 0 0 0 0 0 0 0 0 0 0 0 0 0 0 0 0 0 0 0
0 0 0 0 0 0 0 0 0 0 0 0 0 0 0 0 0 0 0 0 0 0 0 0 0 0 0 0 0 0 0 0 0 0 0 0 0 0 0 0 0 0 0
0 0 0 0 0 0 0 0 0 0 0 0 0 0 0 0 0 0 0 0 0 0 0 0 0 0 0 0 0 0 0 0 0 0 0 0 0 0 0 0 0 0 0
0 0 0 0 0 0 0 0 0 0 0 0 0 0 0 0 0 0 0 0 0 0 0 0 0 0 0 0 0 0 0 0 0 0 0 0 0 0 0 0 0 0 0
0 0 0 0 0 0 0 0 0 0 0 0 0 0 0 0 0 0 0 0 0 0 0 0 0 0 0 0 0 0 0 0 0 0 0 0 0 0 0 0 0 0 0
0 0 0 0 0 0 0 0 0 0 0 0 0 0 0 0 0 0 0 0 0 0 0 0 0 0 0 0 0 0 0 0 0 0 0 0 0 0 0 0 0 0 0
0 0 0 0 0 0 0 0 0 0 0 0 0 0 0 0 0 0 0 0 0 0 0 0 0 0 0 0 0 0 0 0 0 0 0 0 0 0 0 0 0 0 0
0 0 0 0 0 0 0 0 0 0 0 0 0 0 0 0 0 0 0 0 0 0 0 0 0 0 0 0 0 0 0 0 0 0 0 0 0 0 0 0 0 0 0
0 0 0 0 0 0 0 0 0 0 0 0 0 0 0 0 0 0 0 0 0 0 0 0 0 0 0 0 0 0 0 0 0 0 0 0 0 0 0 0 0 0 0
0 0 0 0 0 0 0 0 0 0 0 0 0 0 0 0 0 0 0 0 0 0 0 0 0 0 0 0 0 0 0 0 0 0 0 0 0 0 0 0 0 0 0
0 0 0 0 0 0 0 0 0 0 0 0 0 0 0 0 0 0 0 0 0 0 0 0 0 0 0 0 0 0 0 0 0 0 0 0 0 0 0 0 0 0 0
0 0 0 0 0 0 0 0 0 0 0 0 0 0 0 0 0 0 0 0 0 0 0 0 0 0 0 0 0 0 0 0 0 0 0 0 0 0 0 0 0 0 0
0 0 0 0 0 0 0 0 0 0 0 0 0 0 0 0 0 0 0 0 0 0 0 0 0 0 0 0 0 0 0 0 0 0 0 0 0 0 0 0 0 0 0
0 0 0 0 0 0 0 0 0 0 0 0 0 0 0 0 0 0 0 0 0 0 0 0 0 0 0 0 0 0 0 0 0 0 0 0 0 0 0 0 0 0 0
0 0 0 0 0 0 0 0 0 0 0 0 0 0 0 0 0 0 0 0 0 0 0 0 0 0 0 0 0 0 0 0 0 0 0 0 0 0 0 0 0 0 0
0 0 0 0 0 0 0 0 0 0 0 0 0 0 0 0 0 0 0 0 0 0 0 0 0 0 0 0 0 0 0 0 0 0 0 0 0 0 0 0 0 0 0
0 0 0 0 0 0 0 0 0 0 0 0 0 0 0 0 0 0 0 0 0 0 0 0 0 0 0 0 0 0 0 0 0 0 0 0 0 0 0 0 0 0 0
Wind_Speed
4 4 3 2 3 2 3 3 3 4 4 4 4 4 4 4 3 3 3 8 9 9 8 8 7 7 7 7 7 7 8 8 8 9 9 9 9 10 10 10 11 11 11
5 5 4 3 3 3 3 3 4 4 3 3 4 4 4 3 3 3 3 4 8 8 7 7 7 7 7 7 7 7 7 8 8 8 8 8 9 9 10 10 11 11 11
7 6 5 4 4 4 4 4 4 4 4 3 4 3 3 3 3 3 3 3 3 6 7 7 7 6 7 7 8 8 8 7 8 8 8 8 9 9 10 10 11 12 12
8 7 6 5 5 5 4 5 4 4 3 3 3 2 2 2 3 3 2 3 2 2 4 6 6 6 6 7 8 8 8 8 8 8 9 9 9 10 10 11 12 13 13
10 8 7 5 6 5 4 5 3 3 3 3 3 2 2 2 2 3 2 2 2 2 2 3 5 5 5 6 8 9 9 8 8 9 9 10 10 11 12 12 13 14 15
11 9 6 7 7 6 5 5 4 3 3 4 3 3 2 1 1 2 2 2 2 2 2 3 3 3 5 6 7 9 9 10 10 10 11 11 12 13 13 14 15 15 16
12 11 8 8 8 8 8 8 5 4 3 3 3 2 1 1 1 1 2 2 2 2 3 2 2 1 2 5 7 8 9 10 11 12 12 13 14 15 15 16 17 17 18
12 12 12 10 10 7 8 8 6 5 3 3 4 3 1 1 1 1 1 2 2 2 2 3 2 1 1 1 4 7 9 10 12 13 14 15 16 17 17 18 18 19 19
13 13 13 11 11 11 11 10 9 9 5 2 2 4 5 5 2 0 0 1 2 2 2 2 2 1 1 1 1 5 8 11 13 15 16 17 18 19 19 20 20 20 20
13 13 13 12 12 10 10 11 9 6 7 5 2 1 1 3 4 2 1 1 1 3 2 2 1 1 1 1 2 5 9 12 14 16 18 19 20 21 21 22 21 21 21
10 11 12 11 12 10 10 10 9 7 5 6 5 4 2 2 1 3 3 2 1 1 2 2 2 2 2 1 1 5 11 14 16 18 20 21 22 22 23 22 22 22 22
7 10 10 11 10 9 10 10 9 9 6 6 5 4 4 4 3 3 3 2 1 2 1 1 2 2 2 1 2 9 13 16 18 20 21 22 23 23 23 23 23 23 23
7 11 11 10 9 8 9 9 8 8 7 8 6 3 3 3 3 3 3 2 1 2 2 2 1 2 2 1 2 11 13 17 19 21 22 23 23 23 23 23 23 23 23
9 9 9 9 9 9 9 8 7 7 6 7 7 5 4 3 3 3 3 4 1 1 2 3 1 1 2 2 5 13 7 17 20 22 22 23 23 23 23 23 24 24 24
5 8 8 8 9 9 10 9 7 8 8 7 7 6 4 3 3 2 3 3 3 2 3 3 2 1 2 3 8 5 5 14 21 22 22 23 23 23 23 24 24 24 24
7 10 10 10 10 10 10 9 9 8 9 7 6 7 5 3 3 2 2 2 2 3 3 3 3 3 3 5 11 6 6 19 20 21 22 23 23 24 24 24 24 24 24
10 11 11 11 11 11 11 10 9 10 10 7 6 6 5 4 3 2 2 2 2 3 4 4 3 3 4 6 8 6 7 7 9 20 23 24 24 23 24 24 24 24 24
10 11 11 12 12 11 11 11 11 10 9 8 7 6 4 3 3 2 2 2 2 3 4 5 3 3 5 6 7 8 8 8 7 19 23 23 23 23 23 23 23 24 24
11 11 12 12 12 12 11 11 10 10 9 7 6 5 4 3 2 1 2 2 3 3 3 4 5 3 4 5 6 7 8 8 10 14 19 21 22 23 23 24 25 25 26
12 11 12 12 12 12 12 11 10 10 9 7 5 4 3 2 2 2 2 3 3 3 3 4 5 5 5 5 5 6 8 6 8 10 14 16 19 22 24 26 26 26 26
12 12 13 13 12 10 10 11 10 9 8 6 5 3 2 1 1 2 2 3 3 3 3 4 5 5 5 5 5 5 10 9 8 9 8 7 9 9 12 18 22 24 25
12 13 13 12 11 9 15 15 11 8 7 5 4 3 1 1 3 5 8 8 7 4 4 4 5 7 8 7 7 8 10 11 9 3 5 9 8 10 9 7 19 26 26
12 12 12 11 11 12 16 14 12 7 6 4 3 2 1 1 3 3 6 9 9 12 12 8 7 8 9 9 9 11 10 10 12 8 9 13 8 11 9 12 24 26 27
10 10 11 10 9 10 13 12 11 6 5 3 2 1 1 2 3 5 5 5 5 6 9 7 7 9 9 9 9 10 10 10 10 8 6 11 10 11 11 8 20 26 27
10 9 8 8 8 7 9 9 9 4 3 2 1 0 1 3 8 11 5 5 6 6 11 15 16 16 20 20 16 8 7 9 11 8 4 6 6 7 9 10 13 21 22
9 9 8 7 6 5 7 8 7 3 2 1 0 1 4 6 10 11 5 4 6 7 7 8 10 12 11 12 15 7 5 7 8 7 3 3 4 5 9 5 5 7 11
Wind_Direction
168 165 161 154 148 137 135 128 122 117 110 108 111 115 113 107 98 80 77 102 107 107 102 93 81 68 59 51 44 39 31 27 23 17 13 10 8 4 1 359 356 351 347
173 171 170 168 165 157 148 141 139 130 119 116 112 115 119 117 109 99 78 94 108 110 106 95 81 67 54 43 35 30 23 19 13 7 3 360 357 354 351 349 346 343 340
180 178 177 178 174 157 144 129 122 114 115 111 111 119 125 127 126 116 100 80 89 104 110 99 84 68 51 36 27 18 11 8 1 354 350 346 344 341 339 338 337 333 329
185 181 183 186 169 154 148 143 136 119 122 127 125 124 128 136 139 135 115 104 87 76 96 104 87 68 45 26 13 4 358 355 348 342 337 334 332 329 328 328 327 325 322
190 187 189 182 164 157 158 156 141 137 145 143 131 110 111 142 154 148 143 132 116 103 76 88 82 63 35 15 2 353 347 342 336 331 326 324 321 318 318 318 317 316 314
192 189 186 176 166 162 164 159 143 121 130 139 116 91 68 114 144 160 168 151 142 132 112 86 67 35 21 7 355 344 340 333 328 323 320 317 313 311 311 310 310 310 308
191 189 186 177 176 178 177 162 140 134 129 139 115 95 42 54 132 156 163 159 164 154 135 121 104 67 2 3 353 343 336 329 324 319 314 311 309 307 306 305 306 304 303
192 191 187 184 182 176 170 170 152 141 139 164 146 137 181 284 248 130 159 172 172 152 150 143 123 97 50 11 341 347 340 330 323 317 312 309 308 306 305 304 302 301 300
195 194 191 185 184 181 182 181 171 156 152 167 180 157 163 210 201 222 164 155 170 168 166 159 144 118 102 65 344 340 341 332 322 315 311 310 308 306 304 302 301 299 298
196 194 189 185 184 185 183 183 175 163 145 155 159 118 118 147 156 185 242 225 213 196 193 184 158 148 121 91 17 348 343 333 322 317 313 310 307 305 302 300 300 298 298
195 191 187 185 185 185 182 176 170 167 158 156 157 151 133 74 96 150 195 223 268 233 223 212 192 175 151 119 347 335 343 333 324 317 312 308 305 303 301 300 300 299 297
192 191 186 186 184 180 177 175 171 170 163 152 149 149 152 156 167 157 167 181 241 280 283 266 212 185 177 156 328 340 337 328 321 315 310 306 304 303 302 301 299 297 294
196 196 187 185 180 173 166 160 160 161 152 146 144 136 129 126 132 133 131 144 208 301 309 289 223 189 190 184 299 328 329 322 316 312 307 305 305 304 302 299 296 295 294
199 186 182 175 163 156 155 149 144 140 134 131 129 124 117 110 110 125 136 139 155 294 289 277 299 218 220 245 293 320 316 313 312 307 305 305 304 301 298 296 294 293 292
163 159 158 154 149 146 144 140 134 131 126 120 120 115 109 103 101 103 118 139 155 215 269 271 275 262 240 254 291 295 279 302 307 307 306 302 300 298 296 294 292 291 290
146 146 146 143 140 137 135 128 124 123 119 115 117 115 108 109 113 115 130 144 157 176 233 252 246 252 270 286 297 302 289 304 307 305 301 300 299 296 294 292 291 290 289
143 146 143 138 135 132 129 123 122 120 115 111 108 113 118 125 126 130 139 155 176 179 231 261 251 264 275 279 290 286 281 278 284 298 301 299 298 296 295 294 292 291 289
135 134 132 130 128 126 123 122 122 118 119 120 114 114 118 124 123 139 167 194 208 206 220 263 271 271 266 273 278 284 293 294 285 296 299 299 299 298 296 294 293 292 292
124 125 125 124 123 120 117 114 115 113 110 111 112 119 127 133 145 183 207 221 230 232 219 245 272 262 267 273 282 283 284 284 288 293 298 298 296 295 295 296 296 296 294
116 117 116 115 114 113 111 111 111 109 106 104 105 116 133 153 177 216 234 240 241 249 248 255 269 272 267 268 271 289 298 284 287 290 288 288 291 295 295 295 295 294 292
109 108 106 105 106 106 110 112 111 111 111 112 110 108 106 99 284 258 265 254 243 246 257 265 277 285 286 291 290 288 297 297 283 272 275 276 282 282 285 288 291 289 287
102 103 103 105 103 106 116 116 116 114 118 123 121 104 74 41 347 345 323 307 293 281 277 269 282 288 291 289 291 291 295 300 298 266 281 288 280 283 282 274 284 288 288
99 99 99 100 102 112 117 117 117 117 119 121 118 109 77 352 4 312 300 302 303 301 298 292 285 283 287 286 286 287 285 285 288 291 294 291 283 282 280 282 289 290 291
98 98 99 101 104 113 117 119 119 111 111 111 122 152 215 303 302 288 264 268 269 276 287 285 264 269 273 276 271 280 288 290 282 275 268 281 285 282 283 278 285 286 288
96 95 97 100 100 104 111 116 116 110 111 120 136 118 310 282 298 310 308 289 288 287 300 300 296 296 299 303 304 301 298 298 296 290 252 259 277 287 282 273 275 281 286
98 97 92 90 93 93 106 111 113 113 111 93 20 309 317 312 309 317 309 293 295 293 292 299 303 304 300 296 300 289 276 285 291 293 254 257 279 305 298 262 253 272 280